Back to catalog

GLOBALSTAR M085

AliveCommunicationsLEO
NORAD 37742·PAYLOAD·🇺🇸 United States

Launched Jul 13, 2011 from Baikonur Cosmodrome

Loading…

Next Passes (next 24 hours)

TLE

FreshSource: Space-Track

Epoch: Sep 14, 2026, 12:45 UTC

1 37742U 11033D   26257.53169774 -.00000099  00000-0  25841-4 0  9998
2 37742  52.0120 281.2848 0000476 115.5902  48.9601 12.62265280701075

Track GLOBALSTAR M085 in real time with AllMySat

Download on the App Store